Tracking 28790 objects as of 18-Apr-2024
HD Live streaming from Space Station
objects crossing your sky now

STARLINK-3754

Track STARLINK-3754 now!
10-day predictions
STARLINK-3754 is classified as:


NORAD ID: 52350
Int'l Code: 2022-045V
Perigee: 545.6 km
Apogee: 548.1 km
Inclination: 53.2 °
Period: 95.4 minutes
Semi major axis: 6917 km
RCS: Unknown
Launch date: April 29, 2022
Source: United States (US)
Launch site: AIR FORCE EASTERN TEST RANGE (AFETR)
Your satellite tracking list
Your tracking list is empty




NASA's NSSDC Master Catalog

Two Line Element Set (TLE):
1 52350U 22045V   24109.27599788  .00002406  00000-0  16917-3 0  9998
2 52350  53.2174  58.4998 0001810 128.2964 231.8191 15.08856460111555
Source of the keplerian elements: AFSPC